Theta_e
326 326 327 325 324 319 320 325 326 327 329 331 332 333 334 332 332 333 333 331 331 332 332 330 329 328 328 329 330 330 330 331 332 332 332 333 333 333 332 332 332 332 332 332 332 332 333 333 333 334 334 332 329 327 325 323 321 319 317 315 314 314 313 315 319 326 333 336 336 335 333 331 331 333 335 336 335 335 335 334 333 332 332 332 333
323 322 322 322 321 317 317 319 321 324 326 327 328 331 332 331 331 331 332 331 331 332 332 331 331 330 330 330 331 331 332 332 333 333 333 334 334 334 333 332 332 332 332 332 332 332 333 333 331 332 334 333 328 325 324 323 323 322 321 319 316 315 314 313 313 317 324 330 331 329 331 332 329 330 333 334 335 335 335 335 333 333 336 336 335
320 318 318 318 318 317 317 317 317 318 320 324 326 328 329 329 328 328 330 330 330 330 331 331 331 332 332 332 332 332 332 333 333 333 333 333 334 334 334 334 333 332 332 332 332 332 332 332 332 332 333 332 328 326 324 322 322 323 324 323 321 317 316 315 314 314 316 321 323 324 331 334 331 331 333 332 332 334 335 337 334 333 337 337 336
316 316 316 316 316 316 316 316 316 315 316 320 323 326 326 327 327 326 328 328 328 328 328 329 330 332 333 333 333 334 333 333 332 332 332 333 334 334 334 334 334 334 333 333 333 333 333 333 333 333 333 330 329 329 327 325 323 323 324 325 325 322 318 317 316 315 313 314 316 323 330 334 335 335 334 333 332 334 335 336 334 331 335 336 335
314 314 314 314 315 315 315 315 315 315 314 315 317 320 322 324 325 325 326 328 328 326 326 326 327 330 331 331 333 333 333 333 332 332 332 332 333 334 334 334 334 334 334 333 333 333 333 333 333 333 332 330 328 328 328 328 326 324 325 325 327 327 323 319 317 316 314 311 311 319 328 333 339 338 337 335 332 332 335 335 332 330 333 335 335
314 314 314 315 315 315 315 315 315 315 314 313 313 315 318 321 323 325 326 329 330 330 329 326 326 327 329 330 331 332 333 333 332 332 331 332 332 331 332 332 332 332 332 332 333 333 333 333 333 333 333 331 329 327 326 327 327 327 327 328 329 331 331 329 324 320 315 311 308 314 324 332 338 340 338 336 331 330 333 333 328 330 335 337 336
314 314 314 314 314 314 314 314 315 315 315 314 313 314 315 318 321 323 325 327 329 330 331 330 329 328 329 330 330 330 331 331 331 330 331 331 331 330 330 330 330 329 330 331 332 333 334 334 334 333 333 332 330 328 325 325 327 327 329 330 330 332 334 335 333 330 323 315 308 308 321 331 334 338 338 337 332 329 332 333 329 332 337 337 337
313 313 313 312 313 313 313 313 313 314 314 314 314 314 314 315 317 319 321 323 324 326 327 329 329 330 330 331 331 331 331 331 330 329 329 329 328 328 329 329 329 329 330 330 331 331 333 334 333 333 332 331 331 330 327 324 325 326 329 331 330 331 333 334 334 334 331 327 318 306 312 327 333 333 334 335 333 329 331 333 331 333 337 338 337
312 311 311 311 311 312 312 312 312 313 313 313 313 314 314 314 315 315 317 318 319 319 320 321 323 325 326 328 329 330 331 332 332 331 331 329 328 328 327 327 327 328 329 330 330 331 333 334 333 332 332 332 331 331 329 326 324 324 326 329 330 330 331 331 331 332 333 334 332 321 310 314 326 330 330 330 332 331 332 333 333 334 337 338 338
311 310 310 310 310 311 311 311 311 311 311 311 311 312 312 312 313 313 313 313 314 314 315 316 317 318 320 322 324 326 328 330 331 332 332 331 331 330 330 329 328 327 327 328 329 331 332 332 331 331 331 330 330 329 328 326 324 323 323 324 327 329 330 330 329 330 332 335 336 333 324 313 313 321 326 329 331 333 334 335 336 336 337 339 339
309 309 309 309 309 310 309 310 309 309 309 309 310 310 310 311 311 311 311 312 312 312 313 313 314 315 315 316 317 319 320 322 323 325 327 328 328 329 330 331 330 329 328 329 329 330 330 329 329 329 329 329 328 328 327 325 324 324 322 321 322 325 328 329 329 329 331 333 334 333 331 324 316 315 317 321 326 331 335 336 336 336 335 337 338
309 308 308 308 308 309 308 308 308 308 307 307 307 308 308 308 309 309 309 309 310 310 311 312 312 312 313 313 313 314 314 314 315 316 318 319 321 322 324 326 328 329 329 330 330 330 330 329 329 328 328 327 327 327 325 325 325 325 324 322 320 320 323 327 328 329 328 329 331 330 330 329 326 324 318 314 315 320 329 335 337 337 336 335 335
308 307 307 308 307 308 308 307 307 306 306 306 306 306 306 306 307 307 307 307 307 307 307 307 308 308 308 309 309 310 310 311 311 312 312 312 314 315 316 318 321 323 325 327 328 329 329 329 329 329 328 328 327 327 326 325 325 325 325 324 322 319 320 324 327 328 328 326 328 329 330 330 329 330 327 320 315 311 317 330 337 338 338 337 335
307 307 307 307 307 307 307 307 307 306 306 306 307 306 306 306 306 306 305 305 304 304 304 304 304 305 305 305 305 305 306 306 307 308 308 309 310 311 311 312 313 315 318 320 323 325 326 327 327 327 327 327 328 328 328 327 325 325 324 323 323 322 320 321 324 326 326 325 325 327 329 330 330 331 330 327 323 316 310 319 334 338 338 339 336
307 306 307 307 307 307 307 307 307 307 307 307 307 307 307 306 305 305 304 303 303 303 303 303 303 304 303 303 303 303 303 303 304 304 304 305 306 306 307 308 309 310 311 312 315 317 320 322 323 323 323 324 325 326 328 329 328 327 326 324 323 324 322 320 320 322 325 324 324 326 328 329 330 330 330 328 327 324 314 311 325 335 338 340 337
307 306 306 306 306 307 307 307 308 308 308 307 307 307 306 305 304 303 303 303 303 303 303 303 303 303 303 303 303 303 303 303 303 303 303 303 303 303 303 304 305 306 307 308 309 310 312 314 315 316 316 317 319 321 324 328 330 329 328 326 324 323 323 322 320 320 322 324 324 324 325 327 329 330 331 330 328 327 323 314 317 329 336 339 338
306 306 306 306 306 306 307 307 307 307 307 307 307 306 304 303 303 303 303 303 303 303 303 303 303 303 303 303 303 303 303 303 303 303 302 302 302 302 302 301 301 302 303 304 305 306 307 308 309 309 310 311 313 315 318 323 326 329 330 328 326 324 323 322 322 320 319 319 321 322 324 324 325 327 329 331 331 330 329 322 316 323 333 337 338
306 306 306 306 306 306 306 307 307 307 307 306 305 303 302 302 302 302 303 303 303 303 303 303 303 303 303 303 303 303 303 303 303 303 303 302 302 302 301 301 301 301 301 301 302 302 303 304 305 305 306 307 309 312 314 317 320 324 326 327 327 326 325 323 322 322 321 319 318 318 321 323 324 324 325 327 329 331 332 329 322 320 329 335 336
306 306 305 305 305 306 306 306 306 306 306 305 303 302 301 302 302 302 302 303 303 303 303 303 303 302 302 302 302 303 303 303 303 303 302 302 302 302 302 301 301 301 301 301 300 300 301 301 301 302 303 304 306 308 310 313 316 318 320 322 322 323 323 323 323 323 324 324 322 319 318 319 321 323 324 325 325 327 330 331 329 323 326 334 336
306 305 305 305 305 305 306 306 306 306 305 303 302 301 301 301 302 302 302 302 303 303 303 302 302 302 302 302 302 302 302 302 302 302 302 302 302 301 301 301 301 301 301 301 301 300 300 300 300 300 300 301 302 303 306 308 311 313 315 316 317 317 317 318 321 323 325 325 325 325 322 320 318 318 321 323 323 323 325 328 331 328 324 330 335
305 305 305 305 305 305 305 305 305 305 304 302 301 301 301 301 302 302 302 302 302 302 302 302 302 302 302 302 302 302 302 302 301 301 301 301 301 301 301 301 301 301 300 301 300 300 300 300 300 300 299 299 300 300 301 303 305 307 309 311 312 313 313 314 315 318 321 324 326 327 326 324 322 319 317 318 319 320 322 323 328 331 327 327 333
305 305 305 304 304 304 304 305 305 305 302 301 301 301 301 302 302 302 302 302 302 302 302 302 302 301 302 301 301 301 301 301 301 300 300 300 300 300 300 300 300 300 300 300 300 300 300 300 300 300 300 299 299 299 299 300 301 302 303 305 307 308 309 311 313 315 317 320 323 326 327 326 325 323 320 318 317 317 319 322 324 329 330 327 330
305 305 305 304 304 304 304 305 305 304 301 300 301 301 301 301 301 302 302 302 302 302 302 302 301 301 301 301 301 301 301 301 300 300 300 300 299 299 299 299 299 300 300 300 300 300 300 300 300 300 300 299 299 299 299 299 299 300 300 301 302 303 305 306 308 312 315 317 319 322 325 326 326 326 324 323 321 318 317 320 322 325 329 330 329
305 305 305 304 304 304 304 305 305 303 300 300 301 301 301 301 301 301 301 301 301 302 301 302 301 301 301 301 301 301 300 300 300 300 300 299 299 299 299 299 299 299 300 300 300 300 300 300 300 300 300 300 300 299 299 299 299 299 299 299 300 300 301 302 304 306 309 313 317 319 321 323 325 326 326 325 324 323 320 318 320 323 327 329 330
305 305 305 304 304 304 304 304 305 303 300 300 300 300 301 301 301 301 301 301 301 301 301 301 301 301 301 301 300 300 300 300 300 299 299 299 299 299 299 299 299 299 300 300 300 300 300 300 300 300 300 300 300 299 299 299 299 299 299 299 299 299 300 300 301 302 303 306 311 316 319 320 321 324 325 325 324 325 325 321 319 321 325 328 330
305 305 304 304 303 303 304 304 304 303 301 300 300 300 300 300 301 300 300 300 300 300 301 301 301 301 301 300 300 300 299 299 299 299 299 299 299 299 299 299 299 299 299 299 299 300 300 300 300 300 300 300 299 299 299 299 299 299 299 299 299 299 299 299 300 300 301 302 304 309 314 318 320 321 322 324 325 325 325 323 320 320 323 326 328
306 305 304 304 303 303 303 303 304 303 300 300 300 300 300 300 300 300 300 300 300 300 300 300 300 300 300 300 299 299 299 298 298 298 298 298 298 298 298 298 298 298 298 298 299 299 299 299 299 299 299 299 299 299 299 299 299 299 299 299 298 298 298 299 299 299 299 300 301 304 307 312 316 319 320 321 323 325 324 324 322 321 321 324 327
305 305 304 303 303 303 303 303 303 302 300 299 300 300 300 300 300 299 299 299 299 300 300 300 300 300 300 299 299 298 298 298 298 298 298 298 298 298 298 298 298 298 298 298 298 298 298 298 298 298 299 299 299 299 299 299 299 299 299 299 298 298 298 298 298 299 299 299 300 301 302 305 309 313 317 318 319 322 324 325 324 323 321 323 325
305 305 304 303 303 303 303 303 303 301 300 300 300 300 300 300 299 299 299 299 299 299 299 299 299 300 299 299 298 298 298 298 298 298 298 298 298 298 298 297 297 297 297 297 297 297 297 297 297 297 297 298 298 298 298 298 298 299 298 298 299 298 298 298 298 298 299 299 299 299 300 301 303 305 309 313 316 319 321 323 325 325 323 323 325
305 304 303 303 303 302 302 302 302 301 300 300 300 300 300 300 299 299 299 299 299 299 299 299 299 299 299 298 298 298 298 298 297 297 297 297 297 297 297 297 297 297 297 297 297 297 297 297 297 297 297 297 297 297 297 297 298 298 298 298 298 298 298 298 298 298 298 299 299 299 300 300 300 302 303 306 311 316 319 320 322 325 325 324 325
304 304 303 303 302 302 302 302 301 301 300 300 300 300 300 299 299 299 298 298 298 299 299 299 299 299 298 298 298 297 297 297 297 297 297 297 297 297 296 296 296 296 296 296 296 296 296 296 296 296 296 296 296 296 296 296 296 297 297 297 298 298 298 298 298 299 299 299 299 299 299 300 300 300 301 302 304 309 315 319 321 323 324 324 324
305 304 303 303 302 302 302 302 301 300 300 300 300 300 300 299 299 298 298 298 298 299 299 299 299 298 298 297 297 297 297 296 297 297 296 296 296 296 296 296 296 296 295 295 295 295 295 296 296 296 296 296 296 296 296 296 296 296 296 297 297 297 297 297 298 298 299 299 299 299 299 300 300 300 301 302 302 304 308 314 320 322 324 324 323
305 304 303 303 302 302 301 301 300 300 299 299 299 300 299 299 298 298 298 298 298 299 298 298 298 298 297 297 297 296 296 296 296 296 296 296 296 296 295 295 295 295 295 295 295 295 295 295 295 295 295 295 295 295 295 295 295 295 296 296 296 297 297 297 297 297 298 299 299 300 300 300 301 301 301 301 302 303 304 306 312 319 323 324 323
305 304 303 303 302 301 301 300 300 299 299 299 299 299 299 299 298 298 298 298 298 298 298 298 298 297 297 297 296 296 296 296 296 296 295 295 295 295 295 294 294 294 294 294 294 294 294 294 294 294 294 294 295 294 294 294 294 294 295 295 296 296 296 296 297 297 297 298 299 300 300 301 301 301 301 301 302 302 303 303 305 309 316 321 324
305 304 303 302 302 301 301 300 299 299 299 299 299 299 298 298 298 298 298 298 298 298 298 298 297 297 296 296 296 296 296 296 295 295 295 295 294 294 294 294 294 294 293 293 293 293 293 293 293 294 294 294 294 294 294 294 294 294 294 294 295 295 295 296 296 297 297 298 299 300 300 301 302 302 302 302 302 302 303 303 303 304 306 312 319
304 303 302 302 301 300 300 299 299 298 298 298 298 298 298 297 297 297 297 298 298 298 298 297 297 296 296 296 296 295 295 295 295 295 294 294 293 293 293 293 293 293 293 293 292 292 292 292 292 292 293 293 293 293 293 293 293 293 294 294 294 294 295 295 296 296 297 297 298 299 300 301 301 302 302 302 303 303 302 302 303 304 304 305 309
303 302 301 301 300 300 300 299 298 298 298 298 298 297 297 297 297 297 297 297 297 297 297 297 296 296 296 295 295 295 294 294 294 294 293 293 293 293 292 292 292 292 292 292 292 292 292 292 292 291 291 291 292 292 292 292 292 293 293 294 294 294 294 295 296 296 296 297 298 299 299 300 301 301 302 303 303 303 303 303 303 303 304 305 305
301 301 300 300 300 299 299 298 298 298 297 297 297 297 297 297 297 297 297 297 297 297 296 296 296 296 295 295 294 294 294 294 293 293 293 293 292 292 292 292 292 292 292 292 292 292 292 291 291 291 291 291 291 291 291 291 292 292 293 293 294 294 294 294 295 296 296 297 298 299 299 299 300 300 300 301 302 302 303 303 303 303 303 304 304
300 300 299 299 299 298 298 298 297 297 297 296 296 296 296 296 296 296 296 296 296 296 296 296 295 295 295 294 294 294 294 293 293 293 293 292 292 292 292 292 291 291 291 291 292 292 292 291 291 291 290 290 290 290 291 291 291 291 292 293 293 293 294 294 294 295 295 296 297 298 298 298 298 298 299 299 300 301 301 302 302 303 303 302 303
299 299 299 298 298 298 297 297 297 296 296 296 296 296 296 296 296 296 296 296 295 296 296 295 295 294 294 294 294 293 293 293 293 292 292 292 292 292 291 291 291 291 291 291 291 291 291 291 290 290 290 290 290 290 290 290 291 291 292 292 292 293 293 294 294 294 295 296 297 297 297 297 296 297 297 298 299 300 300 300 301 301 302 302 302
298 298 298 298 298 298 297 297 296 296 296 296 296 296 296 296 296 296 295 295 295 295 295 295 294 294 294 293 293 293 293 293 292 292 292 292 292 291 291 291 290 290 290 291 291 291 291 290 290 290 290 289 289 289 289 290 290 291 291 291 291 293 293 294 294 295 296 297 297 297 297 296 295 296 297 297 298 298 299 299 300 300 301 302 302
298 297 297 297 297 297 297 297 296 296 296 296 296 296 296 296 296 295 295 295 295 295 294 294 293 293 293 293 293 293 293 292 292 292 292 292 291 291 290 290 290 290 290 290 291 291 291 290 290 290 289 289 289 289 289 289 290 290 290 291 292 293 293 294 296 297 298 298 298 297 296 295 295 296 296 296 296 297 297 298 298 299 300 300 300
298 298 297 297 297 297 296 296 296 296 295 295 295 295 295 295 295 295 295 295 295 294 293 293 293 292 292 292 292 293 292 292 292 292 292 291 291 290 290 290 290 290 290 290 291 291 291 290 290 289 289 289 289 289 289 289 289 289 290 291 292 293 293 296 298 298 297 296 296 296 296 296 296 295 295 296 296 297 298 299 299 300 301 302 301
297 297 298 297 297 296 296 296 296 295 295 295 295 295 295 295 294 294 294 294 293 293 292 292 292 292 292 292 292 292 292 292 292 291 291 291 290 290 290 290 290 290 290 290 290 290 290 290 290 289 289 289 289 289 289 289 289 289 290 291 292 293 295 296 296 294 294 294 295 295 296 295 295 295 295 295 296 296 297 298 298 299 300 302 302
298 298 297 297 297 296 296 295 295 295 295 295 294 294 294 294 294 294 293 293 292 292 292 292 292 292 292 291 291 292 292 292 292 291 291 290 290 289 290 290 289 290 290 290 290 290 290 290 290 289 289 289 289 289 289 289 289 289 289 290 291 293 294 294 293 293 293 294 295 295 294 295 295 295 295 295 295 295 296 296 297 298 297 298 300
299 298 297 297 296 296 296 295 295 295 294 294 294 294 294 294 293 293 293 292 292 291 291 291 291 291 291 291 291 291 292 292 291 291 290 290 289 289 289 289 289 289 290 290 290 290 290 290 290 289 289 289 289 289 289 288 288 288 289 289 290 291 292 291 292 294 293 292 293 293 294 295 296 296 296 296 295 295 296 296 296 297 297 297 297
300 299 298 296 296 295 295 295 295 294 294 294 294 294 294 293 293 292 292 292 291 291 291 292 292 292 292 292 292 292 292 292 291 291 290 290 290 289 289 289 289 290 290 290 290 290 290 290 290 289 289 289 288 288 288 288 288 288 288 289 289 289 290 290 291 293 293 293 293 293 293 294 294 294 295 297 296 296 296 296 296 296 297 299 299
302 300 298 296 295 295 294 294 294 294 293 294 293 293 293 293 292 292 292 291 291 291 291 291 292 292 292 292 292 292 291 291 291 290 290 289 289 289 289 289 289 290 290 290 290 290 290 290 290 289 289 289 289 288 288 288 288 288 288 288 288 288 289 289 290 292 293 293 293 293 293 293 293 293 293 295 297 297 297 296 297 297 297 300 300
302 301 299 297 295 295 294 294 293 293 293 293 293 293 292 292 292 291 291 291 291 291 291 291 291 292 292 292 292 291 291 290 290 290 289 289 289 289 289 289 289 290 290 290 290 290 290 290 289 289 289 289 288 288 288 288 287 287 288 288 287 288 288 289 289 291 291 292 292 292 292 293 293 293 293 294 296 297 298 298 298 299 298 298 299
302 300 298 297 295 294 294 293 293 293 293 293 293 292 292 291 291 291 291 290 290 290 291 291 291 291 291 291 291 290 290 290 289 289 289 289 289 289 289 290 290 290 290 290 290 290 289 289 289 289 289 288 288 287 287 287 287 287 287 287 287 287 287 288 288 289 290 291 291 292 292 293 293 293 294 295 295 296 297 297 298 298 299 298 298
301 300 298 297 295 294 294 293 293 293 292 292 292 292 291 291 291 290 290 290 290 290 291 291 291 291 290 290 290 289 289 289 289 289 289 289 289 289 290 290 290 290 290 290 290 289 289 289 289 288 288 288 287 286 286 286 286 286 286 286 286 286 286 287 287 288 288 289 290 291 291 291 292 293 294 294 295 296 296 297 297 297 298 299 299
Wind_Speed
4 5 5 5 3 3 2 2 3 2 2 3 3 2 2 3 4 4 4 4 4 3 3 3 2 2 2 3 4 4 4 4 5 6 6 6 7 6 5 6 5 5 5 5 6 7 8 9 9 8 9 9 9 9 9 10 12 12 11 10 11 12 14 14 15 15 15 14 13 12 14 14 14 15 15 15 14 14 15 15 15 13 11 12 13
6 6 6 5 4 4 4 4 5 6 6 5 5 4 4 4 4 4 5 6 6 5 5 5 5 4 4 4 4 5 5 6 6 7 7 7 7 6 6 5 5 5 5 6 6 7 8 10 11 9 9 9 10 11 10 10 10 11 12 11 11 11 13 14 15 16 17 16 15 15 15 15 15 15 16 16 16 15 16 15 16 14 12 13 14
7 6 5 4 4 5 5 6 7 8 9 9 9 8 8 7 6 5 5 6 6 5 5 5 5 6 6 5 5 6 7 8 9 9 9 8 9 9 9 7 6 6 6 7 7 7 8 9 11 10 10 11 12 12 12 11 10 10 11 11 11 11 12 14 15 16 17 17 16 15 14 13 15 15 16 17 16 16 16 16 17 15 13 15 17
8 5 4 3 4 4 5 6 8 8 9 10 11 12 11 10 9 8 7 7 7 7 7 7 7 6 6 7 7 7 8 9 10 10 10 10 10 10 10 10 9 9 8 8 8 8 8 9 10 10 11 13 14 13 13 14 13 11 10 10 11 11 11 12 14 15 16 17 16 15 12 10 13 15 15 16 16 17 16 16 17 17 16 17 17
6 3 3 3 4 4 4 5 6 8 9 10 12 13 13 13 12 11 11 10 10 10 10 10 10 9 8 8 9 9 8 9 10 11 11 10 11 11 10 11 11 11 10 9 9 9 9 9 10 10 11 13 15 15 16 15 15 14 13 12 11 11 11 11 12 14 15 16 16 15 11 9 12 14 15 17 17 17 16 17 17 18 17 16 15
3 2 2 4 6 6 6 6 5 6 7 9 11 12 13 13 13 13 12 12 12 12 13 13 13 12 11 11 11 11 10 10 11 11 11 10 11 11 11 12 12 12 12 10 10 9 9 10 11 11 11 12 14 16 17 17 16 15 14 14 12 11 12 11 12 12 13 15 16 15 12 10 11 13 15 18 19 19 17 17 17 17 16 16 15
3 3 3 5 7 7 7 7 6 6 6 7 9 11 12 13 14 14 14 14 14 14 14 15 15 15 14 13 14 14 13 14 14 13 12 12 12 12 13 13 14 15 14 13 12 11 11 11 12 12 12 13 14 15 16 17 17 15 13 14 13 12 12 12 13 12 12 14 15 16 15 13 13 13 15 18 20 19 17 17 16 15 15 16 16
4 3 4 6 6 6 7 7 8 7 7 7 8 9 10 12 13 14 15 15 15 16 16 16 17 17 17 16 16 16 16 17 17 17 17 16 16 16 16 16 16 16 16 16 15 14 13 13 13 13 13 13 14 16 17 17 17 16 14 14 14 14 14 14 14 13 13 13 14 16 17 18 17 15 17 18 18 19 19 18 17 16 16 16 16
4 4 5 5 5 5 6 6 6 7 7 7 7 7 8 9 10 11 12 13 15 15 16 16 17 18 18 18 18 18 18 18 18 19 19 19 19 19 19 19 19 18 18 18 17 16 15 14 14 14 14 14 15 16 18 18 18 19 17 16 15 15 16 17 16 14 13 12 12 15 17 21 21 19 18 18 18 18 19 19 18 17 17 17 18
5 5 5 4 3 3 3 3 4 4 5 6 6 6 6 7 8 8 9 10 11 12 13 14 15 16 17 18 18 19 19 20 20 20 20 20 20 21 21 21 21 20 20 19 19 19 17 16 16 15 16 17 17 18 18 18 19 21 21 20 18 17 16 18 18 15 13 13 13 14 15 19 22 23 22 19 17 18 19 19 20 19 19 19 18
5 4 3 2 2 3 3 2 2 2 3 3 4 5 6 6 7 7 8 8 9 10 10 11 12 13 14 15 17 18 19 20 21 21 22 22 22 22 22 23 23 22 21 21 20 21 21 20 19 19 20 20 20 21 21 21 21 22 23 23 22 21 18 19 19 15 14 14 15 16 16 18 18 21 24 22 19 19 20 20 22 22 22 21 20
5 4 4 4 4 4 4 3 3 2 2 2 3 4 5 5 6 7 7 8 8 9 10 10 11 11 12 13 14 16 17 18 20 21 21 22 23 23 24 24 24 24 23 23 22 22 22 22 23 23 23 23 23 24 24 24 24 24 24 24 24 24 22 21 20 18 16 16 16 17 17 18 17 19 23 23 22 22 21 21 23 23 23 23 23
6 5 6 6 6 5 4 3 2 2 3 3 5 5 6 7 8 8 8 9 9 10 10 10 11 11 12 13 14 15 16 17 18 19 20 21 22 23 24 25 25 25 25 24 24 24 24 24 25 25 25 26 27 27 27 27 27 26 26 26 26 25 25 24 23 21 19 18 18 18 17 19 19 20 22 23 23 24 23 23 23 24 23 23 24
8 7 7 7 7 6 5 4 4 4 5 6 7 8 9 10 10 10 10 10 10 11 11 11 11 11 12 13 14 14 15 16 17 18 19 20 21 22 22 24 24 25 25 25 25 26 26 26 26 27 27 27 28 28 29 29 28 28 28 27 27 26 26 26 26 24 23 22 21 20 19 20 21 23 24 24 23 23 24 24 24 24 23 24 25
9 9 9 9 9 7 7 6 6 7 8 8 9 10 11 11 11 11 11 10 11 11 11 12 12 12 12 12 13 13 14 15 16 17 18 19 20 21 22 23 23 24 25 25 26 27 27 28 28 29 29 30 29 30 30 29 29 29 28 28 28 27 27 28 28 27 26 25 24 23 21 21 22 23 25 26 25 23 24 25 25 25 24 24 24
11 11 11 11 10 10 9 9 9 9 9 9 10 10 11 11 11 11 10 10 10 11 11 12 13 13 13 14 14 15 15 16 16 17 17 17 18 19 20 21 22 23 24 25 26 26 27 28 29 30 31 32 32 32 31 30 30 30 29 29 29 29 29 29 29 30 29 27 27 26 25 24 24 24 24 25 26 25 23 24 25 25 24 25 25
13 13 13 13 13 12 11 11 10 10 10 10 10 9 9 9 9 8 8 9 9 10 10 11 12 12 13 14 14 15 16 16 17 18 18 19 19 19 19 20 20 21 22 23 25 26 27 28 29 30 31 32 32 33 33 32 31 31 30 29 29 30 30 30 30 31 32 32 31 31 30 29 28 27 26 24 25 25 24 25 25 25 24 26 26
15 15 15 15 15 14 13 13 12 11 11 10 10 9 9 7 6 6 5 5 6 7 8 9 9 10 11 11 12 13 13 14 15 16 18 19 20 20 21 21 21 21 21 22 23 24 26 27 28 30 31 31 31 32 32 33 33 32 31 31 30 30 31 31 32 32 33 34 35 35 34 33 32 30 28 28 27 26 25 26 26 26 25 25 27
17 17 18 17 17 16 15 14 13 12 11 11 10 9 8 6 5 4 3 3 4 5 6 7 7 8 8 9 10 11 11 12 13 14 15 16 17 19 20 21 22 23 23 23 24 24 25 26 27 28 30 30 31 31 31 32 33 33 33 33 32 32 31 31 33 34 34 33 33 35 36 36 36 33 31 30 30 29 28 27 28 28 28 26 27
19 19 20 19 19 18 17 16 14 13 12 11 10 9 7 6 5 3 3 3 4 5 5 6 6 7 7 8 9 9 10 11 11 12 13 14 15 16 18 19 20 22 23 24 25 26 26 26 26 27 28 29 29 30 31 32 33 34 34 35 35 34 33 33 34 35 36 35 34 34 35 38 39 37 35 33 32 33 32 31 29 30 30 28 27
21 21 21 21 21 19 18 17 15 13 12 11 10 9 7 6 4 3 4 4 5 6 6 6 6 7 7 8 8 9 9 10 11 11 12 13 14 15 17 18 19 20 21 22 23 25 25 26 27 27 27 28 28 28 29 30 32 34 35 36 36 36 36 36 36 36 37 38 38 37 36 38 39 38 38 37 36 35 35 34 32 31 31 31 29
23 23 24 23 22 20 19 17 16 14 13 12 11 9 7 6 5 5 5 6 6 7 6 6 6 6 7 8 8 9 10 11 11 12 13 14 15 16 17 18 19 20 20 21 22 23 23 24 25 26 27 27 27 27 27 28 29 31 33 35 36 37 37 38 38 38 38 39 40 40 39 40 40 39 39 38 38 37 36 35 35 33 32 32 31
25 25 25 25 23 21 19 18 16 15 14 13 12 10 8 7 6 6 6 7 8 8 7 6 6 6 7 8 9 10 11 11 12 13 14 15 16 17 18 19 19 20 20 21 21 22 22 23 23 24 25 25 26 26 26 26 26 27 29 31 33 36 38 39 39 40 40 40 40 41 42 43 42 41 40 38 37 38 38 37 36 36 34 34 34
26 26 26 25 24 22 20 18 17 16 15 14 13 11 9 8 8 7 7 8 8 8 7 6 6 7 7 8 9 10 11 12 12 13 14 16 17 18 18 19 20 20 21 21 21 22 22 23 23 24 24 24 25 25 26 26 26 26 26 27 29 32 35 37 39 41 41 42 42 42 42 44 44 43 42 40 38 37 38 39 39 38 37 36 36
27 27 27 27 25 23 21 19 19 18 16 15 13 12 11 9 8 8 8 8 8 7 7 6 5 6 7 9 10 11 11 12 13 14 15 16 17 18 19 20 21 21 22 22 23 23 24 24 24 25 25 25 25 25 25 25 26 26 25 26 27 28 31 33 36 39 41 43 44 43 43 44 43 44 44 42 41 38 37 39 40 40 39 37 38
29 29 29 28 26 24 22 21 20 19 18 16 14 13 12 10 9 8 8 8 7 7 6 5 5 6 7 9 10 11 12 12 13 13 14 15 16 18 19 20 21 22 22 23 23 24 24 25 25 26 26 26 26 26 26 26 26 26 26 25 26 27 28 30 33 36 38 41 43 44 45 45 43 44 45 45 44 42 40 40 41 42 41 40 39
31 31 31 29 27 25 23 21 21 20 19 17 15 14 13 11 10 9 8 8 7 6 5 5 5 6 7 9 10 11 12 12 13 13 14 15 16 17 19 20 21 22 23 23 24 24 24 25 25 25 26 27 27 28 28 28 28 28 27 26 26 26 27 28 30 33 36 38 41 44 46 46 46 45 46 46 46 46 44 44 43 42 42 42 41
33 33 32 31 29 26 24 22 21 21 20 18 16 15 14 12 10 9 8 7 7 6 5 5 5 6 8 9 10 11 12 13 13 14 15 16 17 18 19 20 21 22 23 23 24 24 25 25 25 25 26 26 27 29 29 30 30 30 30 30 29 28 28 28 29 31 33 36 39 42 44 46 47 47 47 47 48 48 47 46 46 45 43 42 43
35 34 33 32 30 27 24 23 23 22 21 19 18 16 14 13 11 10 8 7 6 6 6 6 6 7 8 9 10 11 12 13 14 15 16 17 18 19 20 22 22 23 24 24 24 25 26 26 27 27 27 27 27 28 29 30 31 32 33 33 32 31 31 30 30 30 32 34 37 40 42 44 46 47 48 48 48 48 49 48 48 47 46 43 43
37 36 34 33 31 28 25 24 24 23 21 20 19 17 15 13 11 10 9 8 7 6 6 7 7 8 8 9 10 11 12 13 14 16 17 18 19 20 21 22 23 24 24 25 25 26 26 27 27 28 29 29 29 30 30 31 31 32 34 35 35 35 34 34 33 32 32 33 35 38 40 41 43 45 48 49 49 48 49 49 48 48 49 46 43
39 37 36 34 32 29 26 26 25 23 22 20 19 18 16 14 13 11 10 9 8 8 8 8 8 8 9 9 10 11 13 14 15 16 17 18 19 20 21 22 23 24 24 25 26 26 27 27 27 28 28 29 30 31 32 32 32 32 33 34 36 36 36 36 36 36 35 34 34 36 38 40 41 43 45 47 49 49 49 49 49 49 50 49 46
41 39 37 36 33 30 28 26 25 23 22 22 21 20 18 16 14 13 11 10 9 9 9 9 9 9 9 10 11 12 13 15 15 16 17 18 19 20 21 22 23 24 25 26 26 27 27 28 28 29 29 29 30 31 32 33 34 34 34 34 35 36 37 37 37 37 37 37 37 36 37 38 40 42 43 45 47 49 50 50 50 50 50 51 50
42 40 38 36 33 31 29 27 26 24 23 23 23 21 19 17 16 14 12 11 10 10 10 9 9 9 9 10 11 13 14 15 16 16 17 18 19 20 21 22 23 24 25 26 27 27 28 28 29 30 30 31 32 32 33 34 34 35 35 35 35 35 35 36 37 37 38 39 39 39 39 38 39 41 42 43 45 47 50 51 51 52 52 51 51
42 41 39 37 35 32 30 28 26 25 25 25 24 22 21 19 17 15 13 12 11 11 10 9 9 9 10 11 12 13 14 15 16 17 18 19 20 21 22 22 23 25 26 27 27 28 28 29 29 30 30 31 32 33 34 35 35 36 36 36 36 35 35 36 36 37 38 39 40 41 41 41 40 40 41 42 43 45 47 50 51 52 53 53 53
42 41 40 38 35 33 31 29 28 27 27 27 25 23 21 19 16 14 13 12 12 11 10 9 8 9 10 11 12 13 14 15 16 17 18 19 20 22 22 23 24 25 26 27 28 28 29 29 29 30 30 31 32 32 33 34 35 36 37 37 37 37 36 35 36 37 38 39 40 40 41 42 42 42 42 42 42 43 44 46 49 50 51 53 54
43 41 40 38 35 34 32 30 29 29 28 27 25 23 20 18 16 14 13 13 12 11 10 8 8 9 10 11 12 13 14 15 16 17 19 20 21 22 23 24 25 26 27 28 29 30 30 30 30 31 31 32 32 33 33 34 35 36 36 37 38 38 38 37 36 36 37 38 39 38 39 40 42 43 44 44 44 44 43 44 46 48 49 51 53
43 41 40 38 36 34 32 31 31 30 29 27 25 22 20 18 16 15 14 14 13 12 10 9 8 8 10 11 12 13 14 16 17 19 20 21 22 23 24 25 26 27 28 29 30 31 32 32 32 32 32 33 33 34 34 35 36 37 37 38 39 40 40 39 39 38 38 38 38 39 40 38 38 39 41 44 45 46 46 45 44 46 48 49 51
43 41 39 38 36 34 33 32 32 31 29 27 25 23 20 18 17 16 16 15 14 12 10 9 8 9 10 11 12 13 15 16 18 20 21 22 23 24 25 26 27 28 29 31 32 33 33 34 34 33 33 33 34 34 34 36 37 38 39 40 40 42 43 43 42 40 39 40 41 40 38 37 37 38 40 41 43 45 47 48 47 45 46 48 50
43 41 39 37 35 34 33 33 32 31 29 27 25 23 21 19 19 18 17 16 14 12 10 10 9 9 10 10 12 13 15 17 19 21 22 23 24 25 26 27 28 29 30 31 32 34 35 35 36 35 34 34 33 34 34 36 38 39 41 42 43 43 44 45 43 41 41 41 40 38 36 37 42 44 45 45 45 44 45 47 48 49 47 46 47
43 42 40 38 36 35 34 34 33 32 30 28 26 24 22 21 21 20 18 16 14 13 12 11 10 9 9 10 11 13 15 17 19 21 23 24 25 26 26 27 28 29 31 32 33 34 35 36 36 36 36 35 35 35 35 36 39 41 42 43 45 46 45 43 41 40 40 37 35 36 39 43 48 49 48 48 48 48 46 45 46 48 50 48 46
44 42 41 39 38 37 36 35 34 32 31 30 28 26 25 24 23 21 20 17 16 14 12 11 10 9 9 9 11 13 16 18 20 21 23 24 25 26 27 27 28 29 31 32 33 34 35 36 36 36 37 36 36 35 35 37 38 40 43 47 48 45 42 42 42 38 34 33 33 36 41 48 49 45 44 45 47 48 48 47 46 45 48 49 48
46 44 43 41 39 38 36 35 34 33 32 31 29 28 27 26 25 23 20 19 17 15 13 11 10 9 9 10 12 14 16 18 20 22 23 24 25 26 27 27 27 29 31 33 34 35 35 36 36 36 36 37 37 36 36 36 35 38 43 48 46 42 42 38 32 28 24 26 31 36 42 47 46 43 43 46 46 46 46 47 47 47 46 47 48
47 46 44 42 41 38 37 36 35 34 33 32 30 29 28 27 25 23 21 19 17 15 13 12 11 10 10 11 12 14 16 19 21 22 23 24 25 26 26 26 26 28 31 33 34 35 35 36 36 36 36 37 38 38 38 36 36 39 37 35 36 41 43 27 14 18 25 31 36 37 40 42 44 47 48 48 47 45 43 43 44 45 44 43 45
48 46 45 44 43 40 38 38 36 35 34 32 31 30 29 28 26 23 21 18 17 15 14 13 12 11 11 12 13 15 17 19 21 22 23 24 25 26 26 26 26 28 31 33 34 34 35 36 35 36 36 38 38 38 38 37 37 36 30 29 30 30 29 22 25 38 38 34 34 32 35 41 46 48 47 47 48 47 46 45 45 45 43 42 43
49 48 48 47 44 41 39 38 37 35 34 33 32 32 31 28 25 23 21 19 17 16 15 13 12 11 12 13 15 16 18 19 21 22 24 25 25 26 26 26 26 28 30 32 33 34 35 36 36 36 36 37 38 39 40 39 38 35 30 29 24 18 23 30 40 48 42 33 33 35 37 38 40 43 44 48 50 50 51 50 48 47 47 47 46
49 49 49 47 44 41 39 38 36 35 34 34 33 32 31 28 26 24 21 19 17 16 15 13 12 12 13 14 16 17 19 20 21 23 24 24 25 25 25 25 26 28 30 32 33 34 36 37 37 37 37 36 38 39 41 40 39 38 35 31 25 22 30 35 33 37 45 45 41 40 37 33 34 38 41 45 48 49 49 49 49 49 49 50 51
46 48 48 46 43 41 39 38 37 36 35 35 34 33 31 29 27 24 22 19 17 16 15 13 13 13 14 15 16 18 20 20 22 23 24 24 24 24 24 24 26 28 30 31 33 34 35 37 37 37 37 37 37 40 41 41 39 38 37 34 32 30 31 33 29 29 39 47 46 43 41 41 41 42 40 40 42 45 48 50 52 52 49 46 47
42 45 46 46 44 42 39 38 38 37 37 36 35 34 32 29 27 24 22 19 17 16 15 14 14 15 16 17 17 18 20 21 22 23 23 23 23 23 24 25 26 28 30 32 33 34 35 36 38 38 39 39 39 40 41 41 40 39 37 35 34 32 29 28 28 26 28 38 47 47 43 43 44 45 44 40 39 39 43 45 46 47 45 42 43
37 41 44 45 45 43 40 40 39 38 38 37 36 34 32 29 27 25 22 19 17 16 16 15 15 16 17 18 18 18 19 21 21 22 22 22 22 23 24 26 28 30 31 33 34 36 37 38 39 40 40 41 41 41 42 41 40 39 37 35 33 31 30 27 26 26 27 31 40 46 44 40 40 45 44 40 39 37 37 38 38 40 42 45 45
34 37 42 44 44 44 43 42 41 41 39 38 36 34 32 29 27 24 22 19 17 16 16 16 16 17 18 18 18 18 19 20 21 21 21 21 22 24 25 27 29 31 33 35 36 38 39 40 41 42 42 43 42 42 42 41 40 38 35 33 30 28 28 28 25 24 26 27 32 41 46 39 35 39 40 37 38 36 35 36 37 39 41 45 46
32 36 41 44 45 45 45 44 44 43 41 39 37 34 32 29 27 24 22 19 17 16 16 17 18 18 18 18 18 19 19 20 20 21 21 21 23 24 26 28 31 33 35 37 38 39 41 42 43 43 44 44 43 42 41 40 38 36 33 29 27 26 26 27 28 26 26 26 28 34 41 42 40 40 40 38 38 38 39 39 40 41 42 42 43
Wind_Direction
201 219 241 233 248 290 314 298 302 313 314 339 336 320 295 278 265 265 261 250 248 259 259 242 230 239 248 256 258 260 266 277 293 296 301 311 309 311 315 315 319 323 325 327 328 328 325 322 326 331 326 323 331 329 320 312 307 304 298 289 279 273 268 264 260 257 258 262 263 267 272 272 271 272 275 276 271 264 263 265 262 263 261 254 249
203 220 226 225 252 284 303 293 287 286 285 285 285 294 291 289 273 256 258 258 257 261 261 251 243 250 256 262 263 262 268 270 273 274 278 282 279 275 276 282 289 297 301 309 320 323 320 319 322 329 325 319 328 328 324 320 314 309 303 296 287 279 274 272 267 261 258 259 262 267 272 278 278 273 271 271 270 263 259 261 259 258 258 254 252
199 205 202 217 256 277 298 296 289 284 281 277 276 282 285 289 281 268 265 257 256 262 265 264 254 252 253 252 258 262 266 265 264 267 269 269 269 267 262 260 263 273 282 292 303 309 309 312 317 324 322 318 324 326 323 324 322 316 307 300 294 288 281 276 274 270 265 260 259 262 270 285 291 286 279 274 270 262 256 255 255 255 252 252 253
188 186 189 223 247 266 295 295 289 281 276 272 271 276 281 283 282 280 275 263 260 267 269 270 264 260 256 249 254 258 259 259 260 263 265 265 267 268 262 256 259 264 269 276 284 291 296 300 306 313 316 315 317 320 320 322 322 321 314 303 295 292 288 281 276 274 271 266 259 255 265 286 295 294 287 279 270 260 254 252 253 256 254 254 252
171 171 199 239 263 285 305 301 295 284 276 270 271 273 277 279 280 283 281 279 275 273 270 266 263 264 262 254 256 259 261 260 262 263 262 264 265 266 263 258 258 261 264 267 274 283 289 292 294 299 304 305 309 310 313 315 316 320 320 314 304 297 294 291 283 278 275 271 264 257 262 274 281 285 283 278 270 259 252 250 251 256 259 261 255
159 199 249 288 292 309 315 313 309 296 287 275 274 273 276 278 279 282 283 285 283 280 275 269 265 263 261 257 259 262 267 266 266 267 265 268 269 268 271 270 264 263 264 264 270 278 285 291 291 292 295 295 298 301 304 307 308 314 317 316 312 303 299 299 295 289 280 275 271 264 260 258 264 273 275 273 269 259 251 251 249 252 260 264 260
208 245 289 299 299 312 314 316 317 313 307 290 283 279 279 279 280 281 282 283 283 283 281 278 273 268 265 261 261 265 270 271 270 270 271 272 275 276 278 279 274 270 268 267 268 273 279 285 287 288 290 291 292 293 293 296 300 304 305 305 303 298 293 292 294 295 290 284 277 264 255 248 249 252 260 268 270 262 252 253 252 251 256 261 263
239 270 286 286 295 305 310 314 317 316 312 306 297 290 287 284 283 282 282 283 282 280 280 281 279 277 274 272 270 272 275 276 276 276 277 277 279 280 279 280 280 278 275 271 269 272 276 277 279 281 284 287 289 289 287 286 290 294 293 292 292 291 287 284 285 288 292 293 285 270 255 248 247 244 246 257 265 263 257 256 258 255 253 255 260
239 265 270 277 292 296 305 307 312 314 310 309 305 302 300 295 293 290 288 286 284 284 282 282 281 282 282 281 280 281 282 281 281 281 282 282 282 283 282 282 281 282 280 275 270 271 274 275 275 275 278 279 281 284 286 286 286 288 287 285 285 286 287 286 283 282 287 290 288 281 266 254 253 251 248 251 257 260 258 257 260 259 255 252 255
226 241 251 267 284 283 287 293 299 301 304 308 313 314 313 311 309 305 304 300 297 296 294 292 290 289 288 287 287 287 288 287 286 286 285 284 284 285 285 284 282 281 280 278 274 272 272 273 274 274 274 276 279 281 283 284 283 284 283 282 280 280 283 285 284 282 280 279 278 281 278 268 261 259 257 255 256 258 257 256 257 257 254 252 252
216 218 217 223 230 236 233 235 251 264 292 303 315 319 320 320 317 316 313 311 309 307 305 303 301 299 297 296 295 293 293 292 291 291 290 289 287 287 286 285 285 283 281 279 276 273 272 271 272 274 276 278 282 283 283 283 282 282 281 280 277 276 276 277 280 280 271 268 270 272 278 279 273 268 264 259 259 258 256 255 257 257 253 252 252
204 195 189 184 196 207 202 205 219 237 296 309 326 325 327 326 324 325 321 319 315 312 310 307 305 302 300 299 298 297 296 295 295 294 293 293 291 290 289 288 287 287 285 282 279 276 273 271 271 273 276 278 281 283 284 284 283 282 282 280 278 275 274 272 274 274 268 264 266 267 271 275 277 276 270 266 264 260 257 256 258 260 257 255 254
193 188 189 188 195 204 205 212 230 270 306 318 327 328 330 329 328 327 323 322 318 317 314 311 309 305 303 300 298 296 296 295 295 295 295 294 293 292 291 290 289 289 287 285 283 281 278 276 274 273 275 278 280 283 283 283 282 281 281 281 279 276 273 272 271 269 268 266 264 264 267 269 271 272 271 271 270 266 261 255 256 260 260 258 256
194 194 197 200 200 207 219 236 260 278 298 308 314 319 322 323 324 324 323 322 321 322 320 319 317 314 312 307 305 302 299 297 296 295 294 294 293 293 292 291 291 290 289 287 285 283 282 281 279 278 278 279 280 281 281 281 280 280 280 280 279 277 274 272 271 269 267 266 264 263 263 264 266 269 271 272 271 269 265 257 254 258 260 259 257
200 203 208 210 209 215 226 242 258 272 286 294 302 308 314 317 318 318 320 323 324 326 326 328 327 326 325 322 319 315 311 307 304 300 297 295 293 292 291 290 290 290 290 289 288 286 284 283 282 281 281 281 281 281 280 279 278 278 279 278 277 277 276 274 273 272 270 267 265 263 262 262 262 265 269 271 272 270 267 260 255 256 258 259 258
207 210 214 216 217 221 227 239 250 263 274 282 291 298 304 306 308 311 315 321 324 327 330 331 332 333 333 333 332 330 329 326 322 318 312 307 301 297 294 291 290 289 289 288 289 288 287 286 285 284 284 283 283 283 282 279 277 277 276 274 274 275 276 276 275 274 273 271 268 266 264 264 263 264 268 269 270 270 267 262 257 255 256 257 256
210 214 217 220 221 224 229 237 244 254 262 271 279 283 289 290 293 299 306 313 318 322 325 327 329 331 332 334 335 335 335 335 334 331 328 324 319 314 308 303 298 294 291 288 288 287 288 288 287 287 286 285 284 283 282 281 278 277 274 271 271 272 275 276 276 276 275 274 272 270 267 266 265 265 267 267 267 267 266 263 259 255 254 255 254
213 217 220 222 222 226 229 235 242 248 256 263 268 271 272 269 272 277 290 302 312 318 320 323 325 328 331 334 335 336 337 338 337 336 334 332 330 327 324 320 316 311 306 300 296 292 291 289 288 288 288 287 286 284 282 281 279 278 276 273 270 269 271 273 276 276 276 275 274 272 270 268 266 265 265 266 266 264 263 262 261 257 253 253 254
215 218 221 224 224 227 229 234 240 246 254 258 260 261 253 244 244 252 271 294 311 317 319 322 324 328 331 334 336 338 341 343 343 342 341 339 338 335 332 330 327 326 322 319 315 310 305 300 296 292 290 289 287 286 283 282 280 278 277 276 273 271 270 270 271 272 273 275 275 274 273 271 268 265 264 264 264 264 262 260 260 258 254 252 253
217 219 222 225 226 228 230 234 239 246 252 252 253 247 237 231 228 238 267 294 309 311 315 319 323 329 331 336 339 341 344 347 349 350 351 349 347 344 342 339 336 334 331 329 326 323 320 316 311 306 301 296 291 288 285 283 281 280 279 278 277 276 274 270 268 268 270 271 272 272 273 273 271 269 264 262 263 264 263 260 257 256 254 252 252
218 220 222 225 226 229 231 235 239 244 244 244 243 235 229 228 229 253 277 294 303 306 311 315 321 328 332 337 338 339 343 346 351 353 355 354 352 351 348 346 343 340 338 335 332 330 327 324 321 317 313 308 303 297 290 286 282 281 280 279 279 278 277 274 272 269 268 267 268 270 271 272 273 273 269 265 264 264 263 261 258 255 253 252 252
218 220 223 224 226 229 232 236 239 240 237 236 235 232 234 236 247 266 281 292 298 302 305 311 321 327 332 334 333 334 337 342 347 350 352 352 352 351 350 347 345 343 341 339 337 335 333 330 327 323 321 317 313 309 303 296 289 284 281 280 279 279 278 277 276 274 271 268 266 267 268 269 271 272 272 270 266 263 263 261 259 256 253 251 251
219 221 223 224 226 229 233 236 238 237 233 234 235 237 240 245 258 269 280 288 292 297 301 310 321 327 330 329 328 328 331 336 340 344 346 348 348 348 347 345 343 342 340 339 338 337 336 334 332 330 327 324 321 318 313 308 302 295 288 283 279 278 277 277 277 276 274 272 269 266 266 267 268 269 271 272 269 265 262 260 260 258 255 251 250
221 223 224 225 228 230 234 236 236 235 232 235 238 241 246 251 261 269 276 282 287 291 297 308 319 327 328 326 324 323 326 330 334 338 340 342 342 342 341 339 338 337 336 336 335 335 335 334 334 333 332 330 328 325 322 319 314 308 302 293 286 281 278 276 275 275 275 274 272 270 267 266 266 267 268 269 271 270 265 261 259 258 257 253 251
225 226 226 226 228 231 235 236 236 235 234 237 240 243 247 253 260 265 270 274 281 285 292 303 316 324 326 323 319 318 320 324 329 332 335 336 336 336 335 335 334 334 333 332 332 332 332 332 332 332 333 333 331 330 328 325 322 318 314 307 299 291 284 279 275 274 273 273 273 272 270 268 265 265 266 267 268 270 269 265 260 257 256 254 253
227 228 228 228 229 232 234 236 237 236 235 236 239 243 246 251 256 258 262 267 272 276 282 292 307 318 320 317 313 313 316 319 323 326 330 331 332 333 332 332 332 332 332 331 331 331 330 330 330 331 331 331 330 330 329 327 325 323 320 316 310 303 295 288 282 277 273 271 271 271 271 270 268 265 264 265 265 267 269 269 264 258 255 254 253
226 227 228 228 230 232 235 237 238 237 235 235 238 241 244 248 251 252 255 260 265 268 273 283 299 310 311 311 310 311 314 317 320 323 326 328 330 331 331 331 331 330 331 331 331 331 330 330 329 329 328 328 328 327 326 326 325 323 321 319 316 312 306 298 291 285 279 275 271 270 270 270 270 267 265 264 263 264 266 269 267 262 257 254 253
226 227 228 228 230 232 235 238 239 237 234 235 236 238 242 245 246 248 252 255 259 262 271 282 293 304 307 309 311 312 316 318 320 323 326 328 330 330 330 329 330 329 329 330 330 330 330 329 329 328 327 327 326 325 324 323 323 322 320 319 318 315 311 307 300 294 288 282 277 273 270 269 269 268 267 265 263 263 263 266 267 265 260 257 254
228 229 228 228 230 232 235 237 238 237 234 234 235 238 242 244 244 247 250 250 252 262 271 280 290 300 305 308 312 315 318 321 323 326 328 330 330 329 329 328 329 328 328 328 327 328 328 328 328 328 328 327 325 324 323 322 321 320 319 317 316 315 313 310 307 302 297 291 286 281 275 271 269 268 268 267 266 263 262 262 264 265 263 258 255
229 230 228 229 231 231 235 238 238 236 234 235 236 239 242 242 242 243 244 244 250 262 270 279 290 297 305 310 314 318 320 323 326 328 329 330 329 328 328 328 328 327 326 325 324 325 325 325 325 326 326 325 325 324 322 320 319 318 317 316 315 314 313 311 309 306 303 298 294 289 284 278 273 269 267 267 267 265 263 260 259 261 262 260 257
229 229 229 230 231 232 236 237 236 234 234 234 235 237 238 236 236 236 237 240 251 261 270 279 289 297 305 311 316 319 322 325 327 329 329 328 328 327 327 326 325 324 323 322 322 322 322 322 322 322 322 321 321 321 320 319 318 316 315 314 313 312 312 311 309 308 306 303 299 295 291 286 280 274 269 267 266 265 264 261 259 257 258 260 258
229 229 230 231 231 233 235 235 234 233 232 232 233 233 233 232 231 231 233 239 250 260 269 279 289 298 306 313 317 321 322 324 326 327 327 326 326 325 324 323 322 321 321 320 320 320 319 319 318 319 319 318 318 318 317 317 316 315 314 313 312 311 311 311 310 309 308 305 303 300 296 292 286 281 275 269 266 265 264 262 260 257 255 257 258
229 229 231 232 232 233 234 234 232 231 230 230 230 229 229 228 228 231 234 241 251 259 268 279 289 299 308 313 317 320 321 322 323 324 324 324 322 321 320 320 319 319 319 319 319 319 319 319 318 318 318 318 318 317 317 316 316 315 314 313 312 311 310 310 310 310 309 309 307 304 301 298 293 288 282 276 270 266 264 263 261 259 256 255 256
230 230 232 232 233 233 232 232 231 230 228 228 228 228 228 228 229 232 235 243 251 258 266 276 289 299 306 311 315 317 318 319 320 321 321 319 317 317 317 318 319 319 319 319 318 319 318 318 318 317 317 317 317 318 318 317 317 315 314 313 313 313 312 311 311 311 310 310 308 306 305 303 300 295 289 283 277 271 266 264 262 261 258 255 254
231 232 233 233 232 231 230 231 230 229 228 227 227 227 228 229 230 233 237 246 251 256 263 273 285 295 301 307 311 313 315 317 318 318 316 315 314 315 317 318 319 319 319 319 319 319 319 319 319 318 318 317 317 317 317 316 316 315 315 314 314 313 312 312 312 312 312 311 309 307 306 305 303 301 297 291 285 279 272 267 264 262 261 258 254
231 232 232 231 230 228 228 229 229 228 227 226 226 226 227 228 231 235 240 247 250 254 259 269 279 290 297 302 307 310 313 315 315 314 313 312 313 314 316 317 318 319 319 320 321 321 321 321 321 321 321 320 319 318 318 317 316 315 315 315 315 314 312 313 313 313 312 312 311 310 309 306 304 303 301 298 293 286 280 274 269 265 263 261 258
230 231 230 229 228 226 227 228 228 228 226 225 224 225 227 230 233 237 242 246 247 249 253 263 272 283 291 297 303 308 310 312 312 311 310 311 312 313 314 316 318 319 320 321 321 321 322 322 322 322 322 321 320 321 320 319 317 316 316 316 316 315 313 313 313 313 313 312 311 311 311 309 306 304 302 300 297 293 287 281 275 269 266 263 260
229 230 230 229 227 226 227 227 227 226 224 223 223 225 228 231 234 237 241 241 240 242 246 255 265 276 285 294 301 306 309 310 310 309 309 310 311 311 312 315 317 319 320 320 320 320 320 320 321 320 320 320 320 320 319 318 317 317 317 318 318 317 316 316 316 315 315 314 314 313 311 310 309 307 305 302 299 295 292 288 283 276 270 266 263
228 229 228 228 226 225 226 226 225 224 222 221 222 225 228 230 233 235 236 235 235 237 242 250 259 270 282 294 301 305 308 309 309 309 309 309 310 310 311 313 315 317 318 318 319 319 319 319 319 319 318 318 317 317 317 317 317 317 318 319 320 319 319 318 317 317 317 317 317 314 311 311 312 311 309 306 302 296 292 290 287 283 278 272 268
227 227 226 225 224 223 224 224 224 222 221 222 223 226 228 230 233 233 232 231 232 235 239 247 256 267 281 293 300 304 306 308 309 308 308 308 308 308 309 312 315 317 318 318 318 318 318 318 317 318 317 316 316 317 317 317 317 318 320 320 319 319 319 318 317 318 319 318 316 313 310 312 314 313 311 309 306 301 296 292 287 285 283 279 275
225 225 225 224 224 223 224 224 223 222 222 223 225 227 229 231 231 230 229 228 230 235 239 246 255 266 280 292 298 303 306 307 307 306 306 306 306 307 308 312 315 317 317 317 317 317 317 317 317 316 316 316 316 317 316 318 320 321 321 319 319 319 318 319 318 318 320 320 317 313 311 312 313 312 310 309 308 305 302 298 292 287 283 281 280
224 224 224 224 225 225 224 224 223 223 223 224 226 228 230 230 229 228 227 228 231 235 240 247 256 267 279 290 297 303 305 304 305 306 306 306 306 306 307 311 314 316 316 315 316 316 316 316 316 315 315 315 314 315 315 317 320 320 320 320 320 320 317 318 321 323 325 319 312 307 306 308 310 308 308 307 306 304 302 300 297 293 288 284 281
226 225 226 226 226 225 223 223 223 223 224 225 227 228 229 229 228 227 227 229 231 234 240 247 256 266 274 284 294 300 303 305 306 306 306 305 304 304 306 310 314 315 315 315 315 315 315 314 314 314 314 313 312 312 312 314 315 316 320 318 317 318 316 319 326 313 308 304 303 303 303 304 306 306 307 306 305 303 300 298 295 294 292 289 285
226 226 227 227 226 224 223 223 223 224 225 226 227 228 228 227 227 227 226 228 231 234 239 245 254 264 274 284 291 298 304 307 307 305 303 302 302 304 307 311 315 316 315 315 314 314 314 313 313 313 312 311 310 309 308 309 310 313 316 312 313 313 308 313 312 305 305 307 306 305 302 302 304 305 304 303 301 299 297 296 293 290 287 286 285
228 229 229 228 227 225 224 224 224 225 226 226 226 227 227 226 226 226 226 228 231 235 240 247 257 269 281 287 292 299 305 306 305 303 300 300 302 305 308 313 316 316 315 314 314 314 314 314 312 311 310 308 307 306 305 306 306 306 306 307 310 303 295 307 312 308 308 308 305 303 301 301 303 303 303 301 299 297 297 296 294 290 287 284 282
231 232 230 230 229 227 225 225 225 225 226 226 226 227 226 225 225 226 227 229 233 237 243 253 263 272 280 286 293 299 303 303 302 300 299 300 302 304 308 314 317 316 315 315 315 315 314 313 312 310 309 307 305 304 303 304 302 301 301 300 296 289 293 303 307 305 305 305 303 303 302 299 297 299 298 296 296 296 294 292 290 289 288 286 282
233 234 232 231 229 227 226 225 226 226 226 226 226 226 225 225 226 226 228 231 237 243 249 258 267 273 279 286 293 297 299 300 299 297 296 297 299 303 309 315 317 316 314 314 314 314 313 312 311 310 307 305 303 302 301 300 298 297 298 298 295 291 291 293 294 297 302 304 303 302 301 299 299 299 294 289 289 290 289 288 288 289 288 285 281
235 235 233 231 229 227 226 226 227 227 227 227 226 226 225 225 226 228 231 234 239 247 253 261 268 275 282 288 292 294 296 296 295 294 294 296 300 307 314 317 317 315 313 313 313 312 311 311 309 308 306 304 302 299 297 295 293 292 293 293 293 292 289 285 282 282 288 295 299 299 299 299 299 299 296 290 284 282 284 285 285 285 284 279 278
237 237 234 232 230 228 226 226 227 228 228 227 226 225 225 225 227 230 233 237 241 248 256 264 270 277 282 287 290 292 292 292 293 293 294 299 306 312 316 317 315 313 312 312 311 311 310 309 307 306 304 302 299 296 293 291 288 287 288 289 288 287 286 281 275 274 274 281 290 294 296 296 295 294 294 292 286 280 278 279 278 277 279 278 277
238 237 235 232 230 228 226 226 227 229 229 228 227 225 225 226 229 232 236 238 242 249 258 266 271 276 281 285 288 289 289 290 291 293 298 304 310 313 313 313 311 310 310 310 309 309 308 307 305 304 302 300 297 294 290 288 285 283 283 282 281 280 279 278 275 271 271 272 278 286 292 292 289 289 288 286 284 279 274 273 273 272 273 275 275
236 234 233 232 230 228 227 226 228 230 230 229 226 225 225 228 230 233 237 239 244 250 258 266 269 274 280 283 286 287 288 289 291 295 301 307 310 310 309 309 308 307 308 308 308 307 306 304 303 301 300 298 296 293 290 287 284 282 280 276 274 273 270 271 273 271 270 271 272 277 285 288 287 285 283 282 279 276 274 272 270 270 270 270 270